Location: *
(34.6780°N, 135.8310°E)
Time: 13:19:31
(UTC+00:00)

SL-16 R/B - Pass Details

Date: 18 October 2019
Orbit: 840 x 850 km, 71.0° (Epoch: 18 November)

Event Time Altitude Azimuth Distance (km) Brightness Sun altitude
Rises 19:30:33 0° 190° (S) 3,377 5.2 -20.1°
Reaches altitude 10° 19:33:00 10° 187° (S) 2,448 4.5 -19.6°
Maximum altitude 19:38:32 63° 108° (ESE) 936 2.6 -18.5°
Drops below altitude 10° 19:44:07 10° 28° (NNE) 2,468 5.0 -17.3°
Sets 19:46:36 0° 25° (NNE) 3,408 5.7 -16.8°
